TimeCDT,TemperatureF,Dew PointF,Humidity,Sea Level PressureIn,VisibilityMPH,Wind Direction,Wind SpeedMPH,Gust SpeedMPH,PrecipitationIn,Events,Conditions,WindDirDegrees,DateUTC
12:01 AM,64.4,62.6,94,29.71,10.0,SSE,11.5,-,N/A,,Mostly Cloudy,150,2012-10-14 05:01:00
12:53 AM,64.9,62.1,90,29.67,10.0,South,13.8,-,N/A,,Mostly Cloudy,170,2012-10-14 05:53:00
1:12 AM,64.4,62.6,94,29.69,10.0,South,12.7,-,N/A,,Mostly Cloudy,190,2012-10-14 06:12:00
1:53 AM,64.9,63.0,93,29.66,10.0,SSW,16.1,27.6,N/A,,Overcast,200,2012-10-14 06:53:00
2:12 AM,64.4,62.6,94,29.67,10.0,South,20.7,26.5,N/A,,Scattered Clouds,190,2012-10-14 07:12:00
2:53 AM,64.0,62.1,93,29.65,10.0,SSW,17.3,-,N/A,,Scattered Clouds,200,2012-10-14 07:53:00
3:03 AM,64.4,62.6,94,29.67,10.0,SSW,17.3,23.0,N/A,,Mostly Cloudy,200,2012-10-14 08:03:00
3:53 AM,63.0,61.0,93,29.66,10.0,SW,16.1,25.3,N/A,,Scattered Clouds,220,2012-10-14 08:53:00
4:53 AM,62.1,59.0,90,29.67,10.0,SW,17.3,27.6,N/A,,Clear,230,2012-10-14 09:53:00
5:53 AM,60.1,55.0,83,29.68,10.0,SW,11.5,-,N/A,,Clear,220,2012-10-14 10:53:00
6:53 AM,57.9,51.1,78,29.73,10.0,SW,13.8,-,N/A,,Clear,230,2012-10-14 11:53:00
7:26 AM,57.2,51.8,82,29.78,10.0,SW,11.5,-,N/A,,Mostly Cloudy,230,2012-10-14 12:26:00
7:53 AM,57.9,52.0,81,29.79,10.0,WSW,12.7,-,N/A,,Mostly Cloudy,240,2012-10-14 12:53:00
8:33 AM,57.2,51.8,82,29.83,10.0,WSW,13.8,-,N/A,,Mostly Cloudy,240,2012-10-14 13:33:00
8:53 AM,59.0,53.1,81,29.82,10.0,WSW,12.7,-,N/A,,Partly Cloudy,250,2012-10-14 13:53:00
9:53 AM,62.1,54.0,75,29.86,10.0,West,15.0,20.7,N/A,,Mostly Cloudy,280,2012-10-14 14:53:00
10:53 AM,64.9,55.9,73,29.89,10.0,West,16.1,21.9,N/A,,Scattered Clouds,280,2012-10-14 15:53:00
11:53 AM,68.0,54.0,61,29.93,10.0,WNW,13.8,20.7,N/A,,Partly Cloudy,300,2012-10-14 16:53:00
12:53 PM,69.1,52.0,54,29.95,10.0,WNW,17.3,27.6,N/A,,Partly Cloudy,290,2012-10-14 17:53:00
1:53 PM,69.1,51.1,53,29.96,10.0,WNW,21.9,26.5,N/A,,Partly Cloudy,300,2012-10-14 18:53:00
2:53 PM,69.8,48.2,46,29.97,10.0,WNW,18.4,27.6,N/A,,Clear,300,2012-10-14 19:53:00
3:53 PM,71.1,48.0,44,29.96,10.0,WNW,11.5,24.2,N/A,,Clear,300,2012-10-14 20:53:00
4:53 PM,70.0,46.9,44,29.97,10.0,WNW,9.2,-,N/A,,Clear,300,2012-10-14 21:53:00
5:53 PM,68.0,45.0,43,29.99,10.0,NW,12.7,-,N/A,,Clear,310,2012-10-14 22:53:00
6:53 PM,63.0,46.0,54,30.01,10.0,WNW,8.1,-,N/A,,Clear,290,2012-10-14 23:53:00
7:53 PM,57.9,46.9,67,30.01,10.0,WSW,4.6,-,N/A,,Clear,250,2012-10-15 00:53:00
8:53 PM,57.9,46.0,65,30.03,10.0,WSW,3.5,-,N/A,,Clear,250,2012-10-15 01:53:00
9:53 PM,54.0,46.0,75,30.04,10.0,Calm,Calm,-,N/A,,Clear,0,2012-10-15 02:53:00
10:53 PM,54.0,46.0,75,30.05,10.0,Calm,Calm,-,N/A,,Clear,0,2012-10-15 03:53:00
11:53 PM,52.0,45.0,77,30.04,10.0,South,4.6,-,N/A,,Clear,190,2012-10-15 04:53:00